Weather History for PAIG - May, 2014

Change the Weather History Date:

Saturday, May 17, 2014

  Actual Average Record
Temperature  
Mean Temperature 56 °F -  
Max Temperature 70 °F - - ()
Min Temperature 43 °F - - ()
Degree Days  
Heating Degree Days 8    
Growing Degree Days 6 (Base 50)    
Moisture  
Dew Point 43 °F    
Average Humidity 64    
Maximum Humidity 93    
Minimum Humidity 34    
Precipitation  
Precipitation 0.00 in - - ()
Sea Level Pressure  
Sea Level Pressure 30.12 in    
Wind  
Wind Speed 7 mph (WSW)    
Max Wind Speed 16 mph    
Max Gust Speed 22 mph    
Visibility 10 miles    
Events Rain    
Averages and records for this station are not official NWS values.
T = Trace of Precipitation, MM = Missing Value Source: NWS Daily Summary

Daily Weather History Graph

Daily Weather History Graph

Search for Another Location

Airport or City:

Trip Planner

Search our weather history database for the weather conditions in past years. The results will help you decide how hot, cold, wet, or windy it might be!

Date:

Astronomy

May. 17, 2014 Rise Set
Actual Time 5:45 AM AKDT 10:55 PM AKDT
Civil Twilight 4:43 AM AKDT 11:58 PM AKDT
Nautical Twilight 2:52 AM AKDT 1:47 AM AKDT
Astronomical Twilight Sun does not set Sun does not set
Moon 1:07 AM AKDT (5/17) 8:45 AM AKDT (5/17)
Length of Visible Light 19h 15m
Length of Day
17h 10m
Waning Gibbous, 88% of the Moon is Illuminated
May 17
Waning Gibbous
May 21
Last Quarter
May 28
New
Jun 5
First Quarter
Jun 12
Full

Hourly Weather History & Observations

Time (AKDT) Temp. Windchill Dew Point Humidity Pressure Visibility Wind Dir Wind Speed Gust Speed Precip Events Conditions
12:56 AM 59.0 °F - 43.9 °F 57% 30.16 in 10.0 mi Calm Calm - N/A   Clear
1:56 AM 50.9 °F - 45.0 °F 80% 30.16 in 10.0 mi Calm Calm - N/A   Clear
2:56 AM 47.8 °F - 41.9 °F 80% 30.16 in 10.0 mi SSW 8.1 mph - 0.00 in Rain Light Rain
3:56 AM 46.4 °F 45.2 °F 42.8 °F 87% 30.15 in 10.0 mi SSW 3.5 mph - N/A   Clear
4:56 AM 43.9 °F - 41.9 °F 93% 30.16 in 10.0 mi Calm Calm - N/A   Clear
5:56 AM 43.9 °F - 41.9 °F 93% 30.16 in 10.0 mi Calm Calm - N/A   Clear
6:56 AM 43.9 °F 38.8 °F 41.0 °F 90% 30.17 in 10.0 mi SSW 9.2 mph - N/A   Clear
7:56 AM 45.9 °F 40.4 °F 41.9 °F 86% 30.17 in 10.0 mi SW 11.5 mph - N/A   Clear
8:56 AM 47.8 °F - 43.0 °F 83% 30.17 in 10.0 mi SW 12.7 mph - N/A   Clear
9:56 AM 50.0 °F - 42.8 °F 76% 30.14 in 10.0 mi SW 12.7 mph - N/A   Clear
10:56 AM 52.9 °F - 43.0 °F 69% 30.14 in 10.0 mi WSW 13.8 mph 19.6 mph N/A   Clear
11:56 AM 55.9 °F - 43.9 °F 64% 30.15 in 10.0 mi WSW 15.0 mph - N/A   Clear
12:56 PM 59.9 °F - 45.0 °F 58% 30.13 in 10.0 mi SW 15.0 mph 20.7 mph N/A   Clear
1:56 PM 61.9 °F - 45.0 °F 54% 30.13 in 10.0 mi SW 16.1 mph - N/A   Clear
2:56 PM 64.9 °F - 45.9 °F 50% 30.10 in 10.0 mi SW 16.1 mph - N/A   Clear
3:56 PM 66.9 °F - 45.9 °F 47% 30.07 in 10.0 mi SW 15.0 mph - N/A   Clear
4:56 PM 68.9 °F - 45.9 °F 44% 30.06 in 10.0 mi SW 16.1 mph 21.9 mph N/A   Clear
5:56 PM 70.0 °F - 45.9 °F 42% 30.04 in 10.0 mi WSW 12.7 mph 19.6 mph N/A   Scattered Clouds
6:56 PM 66.2 °F - 48.2 °F 52% 30.03 in 10.0 mi West 13.8 mph - N/A   Overcast
7:56 PM 64.9 °F - 36.0 °F 34% 30.05 in 10.0 mi NW 16.1 mph - N/A   Overcast
8:56 PM 61.9 °F - 34.0 °F 35% 30.06 in 10.0 mi NW 11.5 mph - N/A   Mostly Cloudy
9:56 PM 59.9 °F - 36.9 °F 42% 30.06 in 10.0 mi NW 9.2 mph 19.6 mph N/A   Overcast
10:56 PM 54.9 °F - 39.9 °F 57% 30.09 in 10.0 mi NW 12.7 mph - N/A   Overcast
11:56 PM 50.9 °F - 38.8 °F 63% 30.10 in 10.0 mi NW 11.5 mph 18.4 mph N/A   Scattered Clouds